Wind_Speed
30 30 30 30 29 29 29 29 30 30 29 30 30 31 31 31 31 31 32 34 34 34 35 36 37 36 36 37 39 40 41 41 40 39 41 41 41 42 43 44 44 43 44
28 28 28 27 27 27 28 28 28 28 28 28 29 29 30 30 30 30 31 32 33 33 35 35 34 34 34 35 36 37 37 37 38 38 38 38 39 40 40 41 42 42 43
27 26 26 25 26 26 27 27 27 26 27 27 27 27 28 28 28 29 30 30 31 32 32 31 31 31 30 31 33 35 35 35 36 37 36 36 38 39 38 39 41 41 42
26 24 24 24 25 25 25 25 25 25 26 26 26 26 27 27 27 28 29 29 28 28 28 29 29 28 28 29 30 32 33 34 35 36 36 36 36 36 38 38 38 40 39
25 24 23 23 24 24 24 24 24 24 24 25 26 27 27 26 27 28 28 28 27 26 27 28 28 27 27 28 29 30 31 33 34 34 34 34 34 34 36 37 38 38 38
24 23 22 23 23 23 24 24 24 24 23 24 26 26 26 26 26 27 26 26 25 25 26 27 27 27 28 28 29 30 31 32 32 33 32 31 31 31 32 35 36 36 36
24 23 22 23 24 24 24 24 24 24 24 25 26 25 26 27 26 24 24 23 24 25 25 26 27 27 27 28 29 30 31 31 32 31 32 31 30 30 31 32 34 34 34
22 22 23 23 24 25 25 25 24 24 25 26 25 25 27 27 26 25 24 24 24 24 25 26 27 27 27 28 29 29 30 31 31 31 31 30 30 30 31 32 33 33 31
23 23 23 24 25 25 25 25 24 25 25 25 25 26 26 26 25 24 24 25 24 25 25 26 28 28 28 29 30 30 30 31 31 31 30 29 29 30 31 32 31 30 29
23 24 24 25 26 25 25 25 25 26 26 26 27 27 26 25 24 24 25 25 24 24 25 27 28 28 28 29 30 30 30 30 30 29 29 29 28 29 30 30 29 28 27
25 25 25 26 26 26 25 25 26 27 27 28 28 27 26 25 24 25 25 25 25 25 26 26 26 27 29 29 29 29 29 29 28 27 27 28 28 29 28 28 27 27 26
25 26 26 26 26 26 27 27 28 28 28 27 28 27 26 25 25 26 26 26 26 26 26 26 27 28 28 28 28 28 27 27 26 26 26 27 27 27 27 27 26 25 25
26 26 26 26 26 27 28 28 28 28 29 29 28 27 26 26 27 28 28 28 27 27 27 27 28 28 28 27 27 27 26 25 25 25 25 26 26 26 26 25 25 24 23
28 28 27 27 27 28 29 29 30 30 30 29 28 28 28 28 28 29 29 28 28 27 28 29 29 29 27 26 26 25 24 24 24 23 23 23 24 24 25 24 23 23 22
28 27 27 28 28 29 30 31 31 31 30 29 28 28 28 28 28 28 28 28 28 28 28 28 27 26 25 25 24 24 23 22 22 22 22 21 22 22 23 22 21 20 20
28 28 28 29 30 31 31 31 31 31 30 29 29 28 27 27 27 27 27 27 27 27 27 26 25 24 23 23 22 21 21 20 21 21 21 21 21 21 20 20 19 19 19
28 29 29 29 30 31 31 30 30 29 30 30 29 29 29 28 28 28 28 27 26 26 25 25 24 23 23 22 21 20 20 20 21 22 22 21 21 20 20 19 18 18 18
29 29 29 30 30 30 30 30 29 29 29 29 30 30 30 29 28 28 28 26 25 25 24 23 23 22 22 20 19 19 19 20 21 22 22 22 21 21 20 19 18 17 17
30 30 31 31 31 30 30 30 30 30 30 30 30 30 30 29 30 29 27 26 25 23 23 23 22 21 20 19 19 19 20 20 21 21 21 20 20 19 18 17 16 15 15
30 31 31 31 31 31 30 30 31 31 31 31 31 30 30 31 30 28 26 25 24 23 23 21 20 19 18 18 19 19 19 20 20 20 19 18 18 17 16 16 15 14 13
30 31 31 31 31 32 31 32 32 32 32 32 32 31 30 30 28 26 25 25 24 23 21 20 19 18 18 18 18 19 19 20 20 19 18 17 16 15 14 14 12 12 11
30 31 31 31 31 32 32 32 33 32 32 31 31 30 29 28 26 25 25 24 23 22 21 20 19 18 18 18 17 17 17 17 17 16 16 16 15 14 12 11 10 10 10
31 31 32 32 32 32 32 32 32 31 31 30 29 28 27 26 26 25 24 23 22 21 20 19 18 18 17 17 16 16 15 15 14 14 14 13 12 11 10 9 8 8 8
32 33 33 33 33 33 32 31 30 29 29 28 27 26 25 25 24 23 22 21 20 19 18 17 17 17 16 15 15 14 13 13 12 11 11 10 9 8 8 8 7 7 7
33 33 33 34 33 32 31 30 29 28 27 26 25 24 24 23 22 20 20 20 19 18 17 16 16 15 15 14 14 13 12 11 10 9 8 7 7 6 6 6 6 6 7
33 33 33 33 32 31 30 28 27 26 25 24 23 22 21 20 19 18 18 18 17 16 16 15 15 15 14 13 13 12 11 10 8 7 7 6 6 5 5 6 6 7 7
Wind_Direction
289 290 291 289 289 291 293 291 290 289 287 286 285 284 282 280 279 278 279 279 278 275 274 272 271 270 268 269 270 273 274 274 273 271 269 268 268 270 272 273 274 273 271
291 290 291 291 291 293 295 293 291 289 288 288 288 287 286 283 280 281 281 279 277 277 275 273 272 272 273 271 271 272 274 274 275 274 271 269 270 272 271 272 274 275 275
293 290 290 292 293 294 295 295 293 290 289 289 291 289 288 286 283 284 284 284 279 278 276 275 274 275 276 274 273 273 274 275 276 274 272 271 272 271 271 272 273 277 279
293 290 289 291 295 295 295 296 295 293 291 290 291 291 290 288 287 287 286 286 282 276 276 277 276 275 276 277 277 277 277 276 276 276 273 273 275 274 272 272 274 277 279
293 292 289 292 295 296 297 297 297 297 297 295 294 293 293 291 290 290 288 284 281 277 277 277 276 277 280 280 281 280 281 280 279 277 275 275 275 273 273 274 276 279 280
292 291 291 293 294 296 298 298 299 301 302 302 297 295 293 294 294 291 287 283 280 280 280 278 276 278 280 282 283 282 283 282 281 279 275 276 276 276 276 278 279 280 281
292 292 292 293 293 295 297 298 299 300 302 303 301 299 296 294 294 290 287 284 280 281 281 279 277 279 280 281 282 283 284 283 282 281 278 276 277 278 280 281 283 284 285
294 293 293 292 293 295 297 298 299 299 302 304 302 301 298 296 293 288 285 284 284 282 282 280 279 279 281 282 283 284 284 283 282 281 280 279 279 281 283 284 285 285 286
294 293 292 292 293 295 297 299 300 301 303 303 302 300 300 297 293 290 287 285 286 286 285 282 280 281 282 282 283 284 284 282 282 282 281 279 282 282 284 285 286 286 286
293 293 294 293 293 294 296 299 301 303 303 302 301 301 300 297 292 290 290 288 288 288 287 283 281 282 283 284 284 285 284 283 282 281 279 280 284 285 284 285 285 286 286
291 294 294 294 295 295 295 297 299 301 302 301 301 301 298 295 295 295 293 291 289 287 287 284 283 284 286 286 286 286 285 284 281 280 280 280 283 286 285 285 285 286 286
291 293 294 293 294 295 295 296 298 298 299 300 301 299 297 295 295 296 295 293 290 288 287 286 285 286 287 286 286 287 286 284 281 279 281 283 286 287 287 285 284 285 286
290 292 292 292 292 293 294 295 296 296 296 298 299 298 295 293 293 294 294 292 290 289 287 286 287 286 285 284 286 287 285 282 280 280 283 285 288 289 288 286 284 284 285
289 291 291 291 292 293 295 295 296 297 296 295 296 295 294 294 294 295 293 292 291 289 288 288 288 286 285 285 286 285 283 281 280 282 285 287 289 290 290 288 285 283 284
289 290 290 291 292 294 294 296 297 297 296 296 296 296 296 295 294 294 294 292 291 289 289 290 289 287 285 284 284 283 282 282 283 285 288 290 292 292 290 288 285 281 283
289 290 292 292 293 294 296 296 297 296 296 297 298 297 297 296 295 294 294 294 292 290 289 289 287 286 284 283 284 283 283 283 284 286 289 290 292 292 291 288 285 281 282
288 290 293 294 294 294 295 296 296 297 299 299 298 298 297 296 295 295 294 292 292 291 290 288 286 285 284 284 283 282 282 283 286 288 288 288 289 290 291 288 286 283 283
287 289 292 294 295 295 295 296 297 297 298 298 297 298 297 295 295 294 294 293 291 291 289 287 285 284 284 285 283 283 283 285 288 289 287 286 286 287 288 287 285 283 282
285 288 292 294 295 296 296 297 297 297 298 298 298 297 296 295 295 294 291 290 289 288 288 286 285 284 283 282 283 285 286 288 289 289 287 286 286 286 286 285 285 282 279
285 288 291 293 294 294 295 296 296 297 297 297 297 296 295 294 294 291 288 288 287 287 287 286 284 282 281 282 283 286 288 290 291 289 287 286 285 284 282 281 281 278 274
285 288 291 293 293 293 293 294 295 296 296 296 296 295 294 293 291 288 286 285 286 285 284 284 281 280 281 282 285 287 289 291 290 286 283 283 283 282 278 275 274 273 268
287 290 293 294 295 295 294 295 296 296 296 295 294 293 292 291 289 288 285 283 283 281 280 279 277 277 279 283 285 286 287 289 288 284 282 283 281 279 275 270 268 265 257
287 290 293 294 295 296 297 297 297 296 295 294 293 292 290 289 287 286 283 281 280 278 276 276 277 276 278 280 282 284 285 285 285 283 282 283 278 272 269 264 259 253 241
286 289 292 293 294 295 296 297 296 294 294 293 291 290 289 288 286 283 280 278 277 276 273 272 274 275 276 276 279 280 281 282 282 281 280 278 272 267 261 251 243 237 226
286 289 291 293 294 294 295 295 295 294 294 293 291 290 288 286 284 281 278 275 273 272 271 271 272 272 273 274 274 275 276 279 280 276 270 265 259 253 246 236 225 217 210
286 288 290 291 292 292 293 293 293 293 293 292 291 289 286 283 280 278 276 274 271 270 271 270 271 271 271 270 271 272 270 269 268 261 252 249 247 240 231 216 203 196 194
Height
5614 5612 5610 5607 5605 5602 5599 5596 5594 5592 5590 5588 5586 5584 5583 5582 5581 5581 5581 5581 5581 5582 5582 5583 5584 5585 5586 5588 5589 5590 5591 5591 5593 5596 5596 5596 5597 5597 5597 5597 5596 5595 5595
5606 5604 5602 5600 5598 5596 5593 5590 5588 5586 5584 5582 5579 5578 5576 5575 5574 5574 5573 5573 5574 5574 5575 5575 5576 5577 5578 5579 5580 5581 5581 5581 5582 5584 5586 5586 5587 5586 5587 5587 5586 5585 5584
5599 5597 5595 5594 5592 5590 5588 5585 5583 5581 5579 5577 5574 5572 5570 5569 5568 5567 5567 5566 5566 5567 5567 5568 5569 5569 5570 5571 5571 5572 5572 5573 5573 5574 5576 5576 5577 5576 5576 5576 5576 5575 5574
5593 5591 5589 5588 5587 5585 5583 5580 5578 5576 5574 5572 5569 5567 5565 5563 5562 5561 5560 5560 5560 5560 5561 5561 5562 5562 5563 5563 5564 5564 5564 5564 5564 5565 5565 5567 5567 5566 5566 5566 5566 5565 5564
5587 5586 5585 5583 5582 5580 5578 5576 5574 5572 5569 5567 5565 5562 5559 5557 5556 5555 5554 5554 5554 5554 5555 5555 5555 5555 5556 5556 5556 5556 5556 5556 5556 5556 5556 5557 5557 5556 5556 5556 5556 5555 5554
5582 5581 5579 5578 5578 5576 5574 5572 5570 5567 5565 5562 5560 5557 5555 5552 5551 5549 5548 5548 5548 5548 5549 5549 5549 5549 5549 5549 5548 5548 5548 5547 5547 5547 5548 5548 5548 5547 5547 5546 5545 5545 5545
5577 5576 5575 5575 5573 5572 5570 5568 5566 5563 5561 5558 5555 5552 5550 5547 5545 5544 5543 5543 5543 5543 5543 5543 5543 5543 5542 5542 5541 5541 5540 5539 5539 5539 5539 5539 5539 5539 5538 5537 5536 5535 5534
5574 5573 5571 5570 5569 5567 5565 5563 5561 5559 5556 5554 5551 5548 5546 5543 5540 5539 5538 5538 5537 5537 5537 5536 5536 5536 5535 5534 5534 5534 5533 5533 5532 5531 5531 5531 5530 5529 5528 5528 5527 5526 5525
5570 5569 5567 5566 5564 5562 5561 5558 5556 5554 5552 5549 5546 5543 5541 5538 5536 5534 5533 5532 5532 5531 5530 5530 5529 5529 5528 5527 5527 5527 5526 5525 5523 5523 5522 5522 5521 5520 5519 5519 5518 5517 5516
5566 5564 5562 5561 5559 5557 5555 5553 5551 5549 5546 5544 5541 5538 5536 5533 5531 5529 5527 5526 5526 5525 5524 5523 5522 5521 5521 5520 5519 5518 5517 5516 5515 5515 5514 5514 5513 5512 5511 5510 5509 5508 5508
5561 5559 5557 5555 5553 5551 5550 5548 5545 5543 5541 5538 5536 5533 5530 5528 5526 5524 5522 5520 5519 5518 5518 5516 5515 5514 5513 5512 5511 5510 5509 5508 5507 5506 5506 5506 5505 5504 5503 5502 5500 5500 5500
5556 5554 5551 5549 5547 5545 5544 5542 5539 5537 5535 5532 5530 5527 5524 5522 5520 5518 5516 5514 5512 5511 5511 5510 5509 5507 5506 5505 5504 5503 5501 5500 5500 5499 5499 5498 5498 5497 5495 5494 5493 5493 5492
5550 5548 5546 5544 5542 5540 5537 5535 5533 5531 5528 5526 5523 5521 5518 5516 5514 5511 5510 5508 5506 5504 5503 5502 5501 5500 5499 5497 5496 5495 5494 5493 5493 5493 5492 5492 5491 5490 5488 5487 5486 5485 5485
5544 5542 5540 5538 5536 5534 5532 5529 5527 5524 5521 5519 5516 5514 5512 5509 5507 5505 5503 5501 5499 5497 5496 5494 5493 5492 5491 5490 5488 5487 5486 5486 5486 5486 5486 5485 5484 5483 5481 5480 5479 5479 5480
5538 5536 5534 5532 5530 5528 5526 5523 5520 5517 5514 5512 5509 5507 5505 5503 5500 5497 5495 5494 5492 5490 5488 5487 5486 5484 5483 5482 5481 5480 5479 5479 5479 5479 5479 5478 5477 5476 5475 5474 5473 5473 5473
5531 5530 5527 5526 5524 5521 5519 5516 5513 5510 5507 5504 5502 5499 5497 5495 5493 5490 5488 5486 5484 5482 5481 5480 5478 5477 5476 5475 5474 5473 5473 5472 5472 5472 5472 5472 5471 5470 5469 5468 5467 5467 5467
5524 5523 5521 5519 5516 5514 5512 5509 5507 5504 5501 5498 5495 5492 5490 5488 5485 5483 5481 5479 5477 5475 5474 5472 5471 5470 5469 5468 5467 5467 5467 5466 5466 5466 5466 5465 5465 5464 5463 5463 5462 5462 5462
5517 5515 5514 5511 5509 5507 5504 5502 5500 5497 5495 5492 5489 5485 5483 5480 5478 5476 5474 5472 5471 5469 5467 5466 5464 5463 5462 5462 5461 5461 5461 5460 5460 5459 5459 5458 5458 5458 5457 5457 5456 5456 5456
5510 5508 5506 5504 5501 5499 5497 5494 5492 5490 5487 5485 5482 5479 5476 5473 5471 5469 5466 5465 5464 5462 5461 5459 5458 5457 5456 5456 5456 5455 5455 5454 5453 5452 5452 5452 5451 5451 5451 5451 5451 5451 5451
5502 5500 5498 5496 5494 5491 5489 5487 5484 5482 5479 5477 5475 5472 5469 5466 5464 5462 5460 5458 5457 5456 5454 5453 5452 5451 5451 5451 5450 5450 5449 5448 5447 5446 5446 5446 5445 5445 5446 5446 5446 5446 5447
5493 5492 5490 5488 5485 5483 5481 5479 5476 5474 5471 5469 5467 5464 5461 5459 5457 5455 5453 5452 5450 5449 5448 5447 5446 5446 5445 5445 5445 5444 5443 5442 5441 5441 5440 5440 5440 5440 5441 5441 5442 5442 5443
5485 5483 5481 5479 5477 5474 5472 5470 5467 5465 5462 5460 5458 5456 5453 5451 5449 5448 5446 5445 5444 5442 5442 5441 5441 5440 5440 5439 5439 5438 5438 5437 5436 5435 5435 5435 5435 5435 5436 5437 5438 5439 5440
5476 5474 5473 5470 5468 5466 5463 5461 5458 5456 5453 5451 5449 5447 5445 5443 5442 5440 5439 5438 5437 5436 5435 5435 5435 5435 5434 5434 5433 5433 5432 5432 5431 5431 5431 5431 5431 5431 5432 5433 5434 5435 5437
5467 5465 5464 5462 5459 5457 5455 5452 5449 5447 5445 5442 5440 5439 5437 5435 5434 5433 5432 5431 5431 5430 5429 5429 5429 5429 5429 5429 5429 5428 5428 5428 5427 5427 5427 5427 5427 5428 5429 5430 5431 5433 5434
5457 5456 5454 5452 5450 5448 5445 5443 5441 5438 5436 5434 5432 5431 5429 5428 5427 5426 5425 5425 5424 5424 5424 5423 5423 5424 5424 5424 5424 5424 5424 5424 5424 5424 5424 5424 5425 5425 5426 5428 5429 5431 5433
5447 5446 5444 5443 5441 5438 5436 5434 5432 5430 5428 5426 5425 5423 5422 5421 5420 5419 5419 5418 5418 5418 5418 5418 5418 5418 5419 5419 5419 5419 5420 5420 5420 5420 5421 5422 5423 5424 5425 5427 5428 5430 5432